Time,TemperatureF,DewpointF,PressureIn,WindDirection,WindDirectionDegrees,WindSpeedMPH,WindSpeedGustMPH,Humidity,HourlyPrecipIn,Conditions,Clouds,dailyrainin,SoftwareType,DateUTC
2013-07-31 00:02:00,80.0,71.0,30.00,SSE,159,12.7,0.0,74,0.00,CLR,,0.00,WeatherDisplay:10.37,2013-07-31 05:02:00,
2013-07-31 00:07:00,79.8,71.2,30.00,SSE,155,6.9,6.9,75,0.00,CLR,,0.00,WeatherDisplay:10.37,2013-07-31 05:07:00,
2013-07-31 00:12:00,79.7,71.5,30.00,SSE,150,7.0,7.0,76,0.00,CLR,,0.00,WeatherDisplay:10.37,2013-07-31 05:12:00,
2013-07-31 00:17:00,79.5,71.7,30.00,SE,146,4.6,5.4,77,0.00,CLR,,0.00,WeatherDisplay:10.37,2013-07-31 05:17:00,
2013-07-31 00:22:00,79.3,71.8,30.01,SE,145,4.0,4.0,78,0.00,CLR,,0.00,WeatherDisplay:10.37,2013-07-31 05:22:00,
2013-07-31 00:27:00,79.2,71.7,30.01,SSE,148,9.2,9.2,78,0.00,CLR,,0.00,WeatherDisplay:10.37,2013-07-31 05:27:00,
2013-07-31 00:32:00,79.1,72.0,30.00,SSE,150,3.5,3.5,79,0.00,CLR,,0.00,WeatherDisplay:10.37,2013-07-31 05:32:00,
2013-07-31 00:37:00,78.9,71.8,30.00,SSE,153,10.4,10.4,79,0.00,CLR,,0.00,WeatherDisplay:10.37,2013-07-31 05:37:00,
2013-07-31 00:42:00,78.8,72.1,30.00,SE,144,11.5,11.5,80,0.00,CLR,,0.00,WeatherDisplay:10.37,2013-07-31 05:42:00,
2013-07-31 00:47:00,78.6,71.9,30.00,SSE,151,5.8,5.8,80,0.00,CLR,,0.00,WeatherDisplay:10.37,2013-07-31 05:47:00,
2013-07-31 00:52:00,78.4,71.7,30.00,SSE,149,4.6,4.6,80,0.00,CLR,,0.00,WeatherDisplay:10.37,2013-07-31 05:52:00,
2013-07-31 00:57:00,78.3,71.6,30.00,SSE,149,5.8,5.8,80,0.00,CLR,,0.00,WeatherDisplay:10.37,2013-07-31 05:57:00,
2013-07-31 01:02:00,78.2,71.9,30.00,SSE,148,4.6,4.6,81,0.00,CLR,,0.00,WeatherDisplay:10.37,2013-07-31 06:02:00,
2013-07-31 01:07:00,78.0,71.7,30.00,SSE,162,6.9,6.9,81,0.00,CLR,,0.00,WeatherDisplay:10.37,2013-07-31 06:07:00,
2013-07-31 01:12:00,77.9,72.0,30.00,SSE,159,6.9,6.9,82,0.00,CLR,,0.00,WeatherDisplay:10.37,2013-07-31 06:12:00,
2013-07-31 01:17:00,77.8,71.9,30.00,South,169,4.0,4.0,82,0.00,CLR,,0.00,WeatherDisplay:10.37,2013-07-31 06:17:00,
2013-07-31 01:22:00,77.7,71.8,30.00,SSE,164,10.4,10.4,82,0.00,CLR,,0.00,WeatherDisplay:10.37,2013-07-31 06:22:00,
2013-07-31 01:27:00,77.6,71.7,30.00,SSE,164,2.3,2.3,82,0.00,CLR,,0.00,WeatherDisplay:10.37,2013-07-31 06:27:00,
2013-07-31 01:32:00,77.5,71.6,30.01,SSE,161,4.6,0.0,82,0.00,CLR,,0.00,WeatherDisplay:10.37,2013-07-31 06:32:00,
2013-07-31 01:37:00,77.4,71.8,30.00,SSE,161,1.0,1.2,83,0.00,CLR,,0.00,WeatherDisplay:10.37,2013-07-31 06:37:00,
2013-07-31 01:43:00,77.3,71.7,30.01,SSE,161,3.5,3.5,83,0.00,CLR,,0.00,WeatherDisplay:10.37,2013-07-31 06:43:00,
2013-07-31 01:48:00,77.2,71.6,30.00,SSE,161,6.9,6.9,83,0.00,CLR,,0.00,WeatherDisplay:10.37,2013-07-31 06:48:00,
2013-07-31 01:53:00,77.1,71.9,30.00,SSE,161,0.0,0.0,84,0.00,CLR,,0.00,WeatherDisplay:10.37,2013-07-31 06:53:00,
2013-07-31 01:58:00,77.0,71.8,30.00,SSE,161,5.8,5.8,84,0.00,CLR,,0.00,WeatherDisplay:10.37,2013-07-31 06:58:00,
2013-07-31 02:03:00,76.9,71.7,30.00,SSE,160,5.8,5.8,84,0.00,CLR,,0.00,WeatherDisplay:10.37,2013-07-31 07:03:00,
2013-07-31 02:08:00,76.8,71.9,30.00,SSE,156,8.1,8.1,85,0.00,CLR,,0.00,WeatherDisplay:10.37,2013-07-31 07:08:00,
2013-07-31 02:13:00,76.7,71.8,30.00,SSE,157,3.5,3.5,85,0.00,CLR,,0.00,WeatherDisplay:10.37,2013-07-31 07:13:00,
2013-07-31 02:18:00,76.6,71.7,30.00,SSE,157,6.9,6.9,85,0.00,CLR,,0.00,WeatherDisplay:10.37,2013-07-31 07:18:00,
2013-07-31 02:23:00,76.5,71.7,30.00,SSE,156,8.1,8.1,85,0.00,CLR,,0.00,WeatherDisplay:10.37,2013-07-31 07:23:00,
2013-07-31 02:28:00,76.5,71.7,30.00,SSE,156,1.2,0.0,85,0.00,CLR,,0.00,WeatherDisplay:10.37,2013-07-31 07:28:00,
2013-07-31 02:33:00,76.4,71.9,30.00,SSE,156,0.0,0.0,86,0.00,CLR,,0.00,WeatherDisplay:10.37,2013-07-31 07:33:00,
2013-07-31 02:38:00,76.3,71.8,30.00,SSE,156,0.0,0.0,86,0.00,CLR,,0.00,WeatherDisplay:10.37,2013-07-31 07:38:00,
2013-07-31 02:43:00,76.2,71.7,30.00,SSE,156,0.0,0.0,86,0.00,CLR,,0.00,WeatherDisplay:10.37,2013-07-31 07:43:00,
2013-07-31 02:48:00,76.2,71.7,30.00,SSE,156,3.5,3.5,86,0.00,CLR,,0.00,WeatherDisplay:10.37,2013-07-31 07:48:00,
2013-07-31 02:53:00,76.1,71.9,30.00,SSE,156,4.6,4.6,87,0.00,CLR,,0.00,WeatherDisplay:10.37,2013-07-31 07:53:00,
2013-07-31 02:58:00,76.1,71.9,30.00,SSE,158,6.9,6.9,87,0.00,CLR,,0.00,WeatherDisplay:10.37,2013-07-31 07:58:00,
2013-07-31 03:03:00,76.0,71.8,30.00,SSE,157,4.6,4.6,87,0.00,CLR,,0.00,WeatherDisplay:10.37,2013-07-31 08:03:00,
2013-07-31 03:08:00,76.0,71.8,30.00,SSE,158,3.5,3.5,87,0.00,CLR,,0.00,WeatherDisplay:10.37,2013-07-31 08:08:00,
2013-07-31 03:13:00,76.0,71.8,30.00,SSE,157,4.6,4.6,87,0.00,CLR,,0.00,WeatherDisplay:10.37,2013-07-31 08:13:00,
2013-07-31 03:18:00,76.0,71.8,30.00,SSE,162,8.1,8.1,87,0.00,CLR,,0.00,WeatherDisplay:10.37,2013-07-31 08:18:00,
2013-07-31 03:23:00,75.9,71.8,30.00,SSE,167,3.5,3.5,87,0.00,CLR,,0.00,WeatherDisplay:10.37,2013-07-31 08:23:00,
2013-07-31 03:28:00,75.9,71.8,30.00,SSE,168,3.5,3.5,87,0.00,CLR,,0.00,WeatherDisplay:10.37,2013-07-31 08:28:00,
2013-07-31 03:33:00,75.9,71.8,30.00,SSE,168,2.3,0.0,87,0.00,CLR,,0.00,WeatherDisplay:10.37,2013-07-31 08:33:00,
2013-07-31 03:38:00,75.8,71.7,30.00,SSE,168,2.0,2.0,87,0.00,CLR,,0.00,WeatherDisplay:10.37,2013-07-31 08:38:00,
2013-07-31 03:43:00,75.7,71.6,30.00,SSE,168,0.0,0.0,87,0.00,CLR,,0.00,WeatherDisplay:10.37,2013-07-31 08:43:00,
2013-07-31 03:48:00,75.7,71.6,30.00,SSE,168,3.0,3.0,87,0.00,CLR,,0.00,WeatherDisplay:10.37,2013-07-31 08:48:00,
2013-07-31 03:53:00,75.6,71.5,30.00,SSE,168,0.0,0.0,87,0.00,CLR,,0.00,WeatherDisplay:10.37,2013-07-31 08:53:00,
2013-07-31 03:58:00,75.5,71.4,29.99,SSE,168,3.5,3.5,87,0.00,CLR,,0.00,WeatherDisplay:10.37,2013-07-31 08:58:00,
2013-07-31 04:03:00,75.4,71.3,29.99,SSE,168,0.0,0.0,87,0.00,CLR,,0.00,WeatherDisplay:10.37,2013-07-31 09:03:00,
2013-07-31 04:08:00,75.3,71.2,30.00,SSE,168,0.0,0.0,87,0.00,CLR,,0.00,WeatherDisplay:10.37,2013-07-31 09:08:00,
2013-07-31 04:13:00,75.3,71.5,30.00,SSE,168,0.0,0.0,88,0.00,CLR,,0.00,WeatherDisplay:10.37,2013-07-31 09:13:00,
2013-07-31 04:18:00,75.2,71.4,30.00,SSE,168,0.0,0.0,88,0.00,CLR,,0.00,WeatherDisplay:10.37,2013-07-31 09:18:00,
2013-07-31 04:23:00,75.1,71.3,29.99,SSE,168,0.0,0.0,88,0.00,CLR,,0.00,WeatherDisplay:10.37,2013-07-31 09:23:00,
2013-07-31 04:28:00,75.0,71.2,29.99,SSE,168,0.0,0.0,88,0.00,CLR,,0.00,WeatherDisplay:10.37,2013-07-31 09:28:00,
2013-07-31 04:33:00,74.9,71.1,29.99,SSE,168,4.0,4.0,88,0.00,CLR,,0.00,WeatherDisplay:10.37,2013-07-31 09:33:00,
2013-07-31 04:38:00,74.8,71.0,30.00,SSE,168,1.2,1.2,88,0.00,CLR,,0.00,WeatherDisplay:10.37,2013-07-31 09:38:00,
2013-07-31 04:43:00,74.7,70.9,30.00,SSE,168,6.9,6.9,88,0.00,CLR,,0.00,WeatherDisplay:10.37,2013-07-31 09:43:00,
2013-07-31 04:48:00,74.6,70.8,30.00,SSE,168,0.0,0.0,88,0.00,CLR,,0.00,WeatherDisplay:10.37,2013-07-31 09:48:00,
2013-07-31 04:53:00,74.6,70.8,30.00,SSE,168,0.0,0.0,88,0.00,CLR,,0.00,WeatherDisplay:10.37,2013-07-31 09:53:00,
2013-07-31 04:58:00,74.5,71.0,30.00,South,169,4.0,4.0,89,0.00,CLR,,0.00,WeatherDisplay:10.37,2013-07-31 09:58:00,
2013-07-31 05:03:00,74.5,71.0,30.00,South,169,0.0,0.1,89,0.00,CLR,,0.00,WeatherDisplay:10.37,2013-07-31 10:03:00,
2013-07-31 05:08:00,74.5,71.0,30.00,SSE,168,4.6,4.6,89,0.00,CLR,,0.00,WeatherDisplay:10.37,2013-07-31 10:08:00,
2013-07-31 05:13:00,74.4,70.9,30.00,South,169,3.0,3.0,89,0.00,CLR,,0.00,WeatherDisplay:10.37,2013-07-31 10:13:00,
2013-07-31 05:18:00,74.4,70.9,30.00,South,169,0.0,0.0,89,0.00,CLR,,0.00,WeatherDisplay:10.37,2013-07-31 10:18:00,
2013-07-31 05:23:00,74.4,70.9,30.00,SSE,168,3.5,3.5,89,0.00,CLR,,0.00,WeatherDisplay:10.37,2013-07-31 10:23:00,
2013-07-31 05:28:00,74.3,70.8,30.00,South,169,0.0,0.0,89,0.00,CLR,,0.00,WeatherDisplay:10.37,2013-07-31 10:28:00,
2013-07-31 05:33:00,74.2,70.7,30.00,SSE,168,2.3,2.3,89,0.00,CLR,,0.00,WeatherDisplay:10.37,2013-07-31 10:33:00,
2013-07-31 05:38:00,74.1,70.6,30.00,SSE,168,0.0,0.0,89,0.00,CLR,,0.00,WeatherDisplay:10.37,2013-07-31 10:38:00,
2013-07-31 05:43:00,74.1,71.0,30.00,South,171,6.0,6.0,90,0.00,CLR,,0.00,WeatherDisplay:10.37,2013-07-31 10:43:00,
2013-07-31 05:48:00,74.0,70.9,30.00,South,171,4.6,4.6,90,0.00,CLR,,0.00,WeatherDisplay:10.37,2013-07-31 10:48:00,
2013-07-31 05:53:00,73.9,70.8,30.00,South,171,0.0,0.0,90,0.00,CLR,,0.00,WeatherDisplay:10.37,2013-07-31 10:53:00,
2013-07-31 05:58:00,73.9,70.8,30.00,South,171,3.5,3.5,90,0.00,CLR,,0.00,WeatherDisplay:10.37,2013-07-31 10:58:00,
2013-07-31 06:03:00,73.9,70.8,30.01,South,171,0.0,0.0,90,0.00,CLR,,0.00,WeatherDisplay:10.37,2013-07-31 11:03:00,
2013-07-31 06:08:00,73.8,70.7,30.01,South,173,5.0,5.0,90,0.00,CLR,,0.00,WeatherDisplay:10.37,2013-07-31 11:08:00,
2013-07-31 06:13:00,73.8,70.7,30.01,South,175,11.5,11.5,90,0.00,CLR,,0.00,WeatherDisplay:10.37,2013-07-31 11:13:00,
2013-07-31 06:18:00,73.7,70.6,30.01,South,176,8.1,8.1,90,0.00,CLR,,0.00,WeatherDisplay:10.37,2013-07-31 11:18:00,
2013-07-31 06:23:00,73.7,70.3,30.01,South,176,6.9,6.9,89,0.00,CLR,,0.00,WeatherDisplay:10.37,2013-07-31 11:23:00,
2013-07-31 06:28:00,73.7,70.3,30.01,South,176,5.8,5.8,89,0.00,CLR,,0.00,WeatherDisplay:10.37,2013-07-31 11:28:00,
2013-07-31 06:33:00,73.6,70.2,30.01,South,176,3.5,3.5,89,0.00,CLR,,0.00,WeatherDisplay:10.37,2013-07-31 11:33:00,
2013-07-31 06:38:00,73.6,70.2,30.01,South,176,0.0,0.0,89,0.00,CLR,,0.00,WeatherDisplay:10.37,2013-07-31 11:38:00,
2013-07-31 06:43:00,73.5,70.1,30.01,South,176,3.5,3.5,89,0.00,CLR,,0.00,WeatherDisplay:10.37,2013-07-31 11:43:00,
2013-07-31 06:48:00,73.5,70.1,30.02,South,176,4.6,4.6,89,0.00,CLR,,0.00,WeatherDisplay:10.37,2013-07-31 11:48:00,
2013-07-31 06:53:00,73.4,70.0,30.02,South,176,5.8,5.8,89,0.00,CLR,,0.00,WeatherDisplay:10.37,2013-07-31 11:53:00,
2013-07-31 06:58:00,73.4,70.0,30.02,South,176,5.0,5.0,89,0.00,CLR,,0.00,WeatherDisplay:10.37,2013-07-31 11:58:00,
2013-07-31 07:03:00,73.3,69.9,30.02,South,176,1.2,0.0,89,0.00,CLR,,0.00,WeatherDisplay:10.37,2013-07-31 12:03:00,
2013-07-31 07:08:00,73.3,69.9,30.02,South,176,4.0,4.0,89,0.00,CLR,,0.00,WeatherDisplay:10.37,2013-07-31 12:08:00,
2013-07-31 07:13:00,73.3,69.9,30.02,South,178,5.8,5.8,89,0.00,CLR,,0.00,WeatherDisplay:10.37,2013-07-31 12:13:00,
2013-07-31 07:18:00,73.4,70.0,30.02,South,179,10.4,10.4,89,0.00,CLR,,0.00,WeatherDisplay:10.37,2013-07-31 12:18:00,
2013-07-31 07:23:00,73.4,70.0,30.02,South,179,5.0,5.0,89,0.00,CLR,,0.00,WeatherDisplay:10.37,2013-07-31 12:23:00,
2013-07-31 07:28:00,73.5,70.1,30.03,South,178,4.0,4.0,89,0.00,CLR,,0.00,WeatherDisplay:10.37,2013-07-31 12:28:00,
2013-07-31 07:33:00,73.5,70.1,30.03,South,180,11.0,11.0,89,0.00,CLR,,0.00,WeatherDisplay:10.37,2013-07-31 12:33:00,
2013-07-31 07:38:00,73.5,70.1,30.03,South,187,5.8,5.8,89,0.00,CLR,,0.00,WeatherDisplay:10.37,2013-07-31 12:38:00,
2013-07-31 07:43:00,73.7,70.3,30.03,South,187,10.4,10.4,89,0.00,CLR,,0.00,WeatherDisplay:10.37,2013-07-31 12:43:00,
2013-07-31 07:48:00,73.9,70.5,30.03,South,187,3.5,3.5,89,0.00,CLR,,0.00,WeatherDisplay:10.37,2013-07-31 12:48:00,
2013-07-31 07:53:00,74.1,70.6,30.03,South,187,4.6,4.6,89,0.00,CLR,,0.00,WeatherDisplay:10.37,2013-07-31 12:53:00,
2013-07-31 07:58:00,74.3,70.5,30.03,South,187,4.0,4.0,88,0.00,CLR,,0.00,WeatherDisplay:10.37,2013-07-31 12:58:00,
2013-07-31 08:03:00,74.5,70.7,30.03,South,189,8.0,8.0,88,0.00,CLR,,0.00,WeatherDisplay:10.37,2013-07-31 13:03:00,
2013-07-31 08:08:00,74.8,70.7,30.03,South,176,11.5,11.5,87,0.00,CLR,,0.00,WeatherDisplay:10.37,2013-07-31 13:08:00,
2013-07-31 08:13:00,75.1,70.6,30.04,South,182,9.2,9.2,86,0.00,CLR,,0.00,WeatherDisplay:10.37,2013-07-31 13:13:00,
2013-07-31 08:18:00,75.3,70.5,30.04,South,181,11.5,11.5,85,0.00,CLR,,0.00,WeatherDisplay:10.37,2013-07-31 13:18:00,
2013-07-31 08:23:00,75.5,70.7,30.04,South,183,10.0,10.0,85,0.00,CLR,,0.00,WeatherDisplay:10.37,2013-07-31 13:23:00,
2013-07-31 08:28:00,75.8,70.6,30.04,South,185,6.9,6.9,84,0.00,CLR,,0.00,WeatherDisplay:10.37,2013-07-31 13:28:00,
2013-07-31 08:33:00,76.0,70.8,30.04,SSW,193,13.8,13.8,84,0.00,CLR,,0.00,WeatherDisplay:10.37,2013-07-31 13:33:00,
2013-07-31 08:38:00,76.2,70.7,30.04,South,188,11.5,11.5,83,0.00,CLR,,0.00,WeatherDisplay:10.37,2013-07-31 13:38:00,
2013-07-31 08:43:00,76.4,70.9,30.04,SSW,205,10.4,10.4,83,0.00,CLR,,0.00,WeatherDisplay:10.37,2013-07-31 13:43:00,
2013-07-31 08:48:00,76.6,70.7,30.04,South,187,10.4,10.4,82,0.00,CLR,,0.00,WeatherDisplay:10.37,2013-07-31 13:48:00,
2013-07-31 08:53:00,76.8,70.9,30.04,South,176,11.0,11.0,82,0.00,CLR,,0.00,WeatherDisplay:10.37,2013-07-31 13:53:00,
2013-07-31 08:58:00,77.1,70.8,30.04,SSE,165,11.5,11.5,81,0.00,CLR,,0.00,WeatherDisplay:10.37,2013-07-31 13:58:00,
2013-07-31 09:03:00,77.3,70.6,30.04,SSW,209,12.7,12.7,80,0.00,CLR,,0.00,WeatherDisplay:10.37,2013-07-31 14:03:00,
2013-07-31 09:08:00,77.6,70.6,30.04,South,176,11.5,11.5,79,0.00,CLR,,0.00,WeatherDisplay:10.37,2013-07-31 14:08:00,
2013-07-31 09:13:00,77.8,70.8,30.04,South,186,12.7,12.7,79,0.00,CLR,,0.00,WeatherDisplay:10.37,2013-07-31 14:13:00,
2013-07-31 09:18:00,78.0,70.6,30.04,SSW,206,11.5,11.5,78,0.00,CLR,,0.00,WeatherDisplay:10.37,2013-07-31 14:18:00,
2013-07-31 09:23:00,78.2,70.8,30.04,SW,232,12.0,12.0,78,0.00,CLR,,0.00,WeatherDisplay:10.37,2013-07-31 14:23:00,
2013-07-31 09:28:00,78.4,71.0,30.04,South,187,10.4,10.4,78,0.00,CLR,,0.00,WeatherDisplay:10.37,2013-07-31 14:28:00,
2013-07-31 09:33:00,78.6,70.4,30.04,South,186,9.2,9.2,76,0.00,CLR,,0.00,WeatherDisplay:10.37,2013-07-31 14:33:00,
2013-07-31 09:38:00,78.8,70.2,30.04,South,180,11.5,11.5,75,0.00,CLR,,0.00,WeatherDisplay:10.37,2013-07-31 14:38:00,
2013-07-31 09:43:00,79.0,70.0,30.04,South,182,11.5,11.5,74,0.00,CLR,,0.00,WeatherDisplay:10.37,2013-07-31 14:43:00,
2013-07-31 09:48:00,79.2,70.2,30.04,SSW,211,10.4,10.4,74,0.00,CLR,,0.00,WeatherDisplay:10.37,2013-07-31 14:48:00,
2013-07-31 09:53:00,79.3,70.3,30.04,SSW,194,11.0,11.0,74,0.00,CLR,,0.00,WeatherDisplay:10.37,2013-07-31 14:53:00,
2013-07-31 09:58:00,79.5,70.1,30.04,SSW,206,12.0,12.0,73,0.00,CLR,,0.00,WeatherDisplay:10.37,2013-07-31 14:58:00,
2013-07-31 10:03:00,79.7,69.9,30.04,SSW,213,10.0,10.0,72,0.00,CLR,,0.00,WeatherDisplay:10.37,2013-07-31 15:03:00,
2013-07-31 10:08:00,79.9,70.5,30.04,SSW,205,2.0,2.0,73,0.00,CLR,,0.00,WeatherDisplay:10.37,2013-07-31 15:08:00,
2013-07-31 10:13:00,80.3,70.9,30.03,SSW,203,10.4,10.4,73,0.00,CLR,,0.00,WeatherDisplay:10.37,2013-07-31 15:13:00,
2013-07-31 10:18:00,80.6,70.7,30.03,SSW,198,5.8,5.8,72,0.00,CLR,,0.00,WeatherDisplay:10.37,2013-07-31 15:18:00,
2013-07-31 10:23:00,80.9,69.3,30.03,SW,214,5.8,5.8,68,0.00,CLR,,0.00,WeatherDisplay:10.37,2013-07-31 15:23:00,
2013-07-31 10:28:00,81.2,68.8,30.03,SW,226,11.5,11.5,66,0.00,CLR,,0.00,WeatherDisplay:10.37,2013-07-31 15:28:00,
2013-07-31 10:33:00,81.5,68.6,30.03,SW,219,6.0,6.0,65,0.00,CLR,,0.00,WeatherDisplay:10.37,2013-07-31 15:33:00,
2013-07-31 10:38:00,81.8,68.9,30.03,SSW,200,4.6,4.6,65,0.00,CLR,,0.00,WeatherDisplay:10.37,2013-07-31 15:38:00,
2013-07-31 10:43:00,82.2,68.3,30.03,SSW,206,7.0,7.0,63,0.00,CLR,,0.00,WeatherDisplay:10.37,2013-07-31 15:43:00,
2013-07-31 10:48:00,82.4,68.5,30.03,SW,215,11.5,11.5,63,0.00,CLR,,0.00,WeatherDisplay:10.37,2013-07-31 15:48:00,
2013-07-31 10:53:00,82.7,68.8,30.03,SSW,208,10.4,10.4,63,0.00,CLR,,0.00,WeatherDisplay:10.37,2013-07-31 15:53:00,
2013-07-31 10:58:00,83.1,68.3,30.03,SSW,205,10.4,10.4,61,0.00,CLR,,0.00,WeatherDisplay:10.37,2013-07-31 15:58:00,
2013-07-31 11:03:00,83.4,68.5,30.03,South,184,9.2,9.2,61,0.00,CLR,,0.00,WeatherDisplay:10.37,2013-07-31 16:03:00,
2013-07-31 11:08:00,84.0,69.1,30.02,South,190,11.5,11.5,61,0.00,CLR,,0.00,WeatherDisplay:10.37,2013-07-31 16:08:00,
2013-07-31 11:13:00,84.3,68.9,30.02,South,184,12.7,12.7,60,0.00,CLR,,0.00,WeatherDisplay:10.37,2013-07-31 16:13:00,
2013-07-31 11:18:00,84.5,69.1,30.02,SSW,211,4.6,4.6,60,0.00,CLR,,0.00,WeatherDisplay:10.37,2013-07-31 16:18:00,
2013-07-31 11:23:00,84.9,68.5,30.03,SSW,195,9.0,9.0,58,0.00,CLR,,0.00,WeatherDisplay:10.37,2013-07-31 16:23:00,
2013-07-31 11:28:00,85.3,68.8,30.02,SSW,194,4.6,4.6,58,0.00,CLR,,0.00,WeatherDisplay:10.37,2013-07-31 16:28:00,
2013-07-31 11:33:00,85.6,68.1,30.02,South,182,6.9,6.9,56,0.00,CLR,,0.00,WeatherDisplay:10.37,2013-07-31 16:33:00,
2013-07-31 11:38:00,85.8,68.3,30.02,South,178,13.8,13.8,56,0.00,CLR,,0.00,WeatherDisplay:10.37,2013-07-31 16:38:00,
2013-07-31 11:43:00,86.3,68.8,30.02,South,190,6.9,6.9,56,0.00,CLR,,0.00,WeatherDisplay:10.37,2013-07-31 16:43:00,
2013-07-31 11:48:00,86.4,67.8,30.02,SSE,150,12.0,12.0,54,0.00,CLR,,0.00,WeatherDisplay:10.37,2013-07-31 16:48:00,
2013-07-31 11:53:00,86.6,67.4,30.02,South,172,12.7,12.7,53,0.00,CLR,,0.00,WeatherDisplay:10.37,2013-07-31 16:53:00,
2013-07-31 11:58:00,86.8,66.5,30.02,South,190,11.5,11.5,51,0.00,CLR,,0.00,WeatherDisplay:10.37,2013-07-31 16:58:00,
2013-07-31 12:03:00,87.1,66.8,30.02,South,175,9.2,9.2,51,0.00,CLR,,0.00,WeatherDisplay:10.37,2013-07-31 17:03:00,
2013-07-31 12:08:00,87.5,67.1,30.01,SSW,211,11.5,11.5,51,0.00,CLR,,0.00,WeatherDisplay:10.37,2013-07-31 17:08:00,
2013-07-31 12:13:00,87.4,66.5,30.01,SW,229,11.0,11.0,50,0.00,CLR,,0.00,WeatherDisplay:10.37,2013-07-31 17:13:00,
2013-07-31 12:18:00,87.2,66.9,30.01,WSW,238,4.6,4.6,51,0.00,CLR,,0.00,WeatherDisplay:10.37,2013-07-31 17:18:00,
2013-07-31 12:23:00,87.7,66.8,30.01,SW,221,11.5,11.5,50,0.00,CLR,,0.00,WeatherDisplay:10.37,2013-07-31 17:23:00,
2013-07-31 12:28:00,88.3,66.7,30.01,SW,227,6.9,6.9,49,0.00,CLR,,0.00,WeatherDisplay:10.37,2013-07-31 17:28:00,
2013-07-31 12:33:00,88.4,68.0,30.00,SW,227,6.9,6.9,51,0.00,CLR,,0.00,WeatherDisplay:10.37,2013-07-31 17:33:00,
2013-07-31 12:38:00,89.2,66.3,30.00,South,175,12.7,12.7,47,0.00,CLR,,0.00,WeatherDisplay:10.37,2013-07-31 17:38:00,
2013-07-31 12:43:00,89.7,66.2,30.00,South,177,6.0,6.0,46,0.00,CLR,,0.00,WeatherDisplay:10.37,2013-07-31 17:43:00,
2013-07-31 12:48:00,90.0,65.2,30.00,South,191,4.6,4.6,44,0.00,CLR,,0.00,WeatherDisplay:10.37,2013-07-31 17:48:00,
2013-07-31 12:53:00,90.2,66.6,30.00,SSE,164,8.0,8.0,46,0.00,CLR,,0.00,WeatherDisplay:10.37,2013-07-31 17:53:00,
2013-07-31 12:58:00,90.4,66.8,30.00,SSW,209,7.0,7.0,46,0.00,CLR,,0.00,WeatherDisplay:10.37,2013-07-31 17:58:00,
2013-07-31 13:03:00,90.5,66.3,29.99,SW,221,3.5,3.5,45,0.00,CLR,,0.00,WeatherDisplay:10.37,2013-07-31 18:03:00,
2013-07-31 13:08:00,91.0,66.1,29.99,SSW,204,6.0,6.0,44,0.00,CLR,,0.00,WeatherDisplay:10.37,2013-07-31 18:08:00,
2013-07-31 13:13:00,91.2,64.2,29.99,SSW,205,14.0,14.0,41,0.00,CLR,,0.00,WeatherDisplay:10.37,2013-07-31 18:13:00,
2013-07-31 13:18:00,91.5,63.8,29.99,SW,221,11.5,11.5,40,0.00,CLR,,0.00,WeatherDisplay:10.37,2013-07-31 18:18:00,
2013-07-31 13:23:00,91.5,63.8,29.99,SSW,208,6.9,6.9,40,0.00,CLR,,0.00,WeatherDisplay:10.37,2013-07-31 18:23:00,
2013-07-31 13:28:00,91.5,64.5,29.99,SSE,167,4.6,4.6,41,0.00,CLR,,0.00,WeatherDisplay:10.37,2013-07-31 18:28:00,
2013-07-31 13:33:00,91.6,63.1,29.99,SSW,207,6.9,6.9,39,0.00,CLR,,0.00,WeatherDisplay:10.37,2013-07-31 18:33:00,
2013-07-31 13:38:00,91.7,64.7,29.98,SSW,201,11.0,11.0,41,0.00,CLR,,0.00,WeatherDisplay:10.37,2013-07-31 18:38:00,
2013-07-31 13:43:00,91.8,64.0,29.98,SW,225,6.0,6.0,40,0.00,CLR,,0.00,WeatherDisplay:10.37,2013-07-31 18:43:00,
2013-07-31 13:48:00,91.8,64.7,29.98,SSW,194,9.0,9.0,41,0.00,CLR,,0.00,WeatherDisplay:10.37,2013-07-31 18:48:00,
2013-07-31 13:53:00,92.2,64.4,29.97,SSW,213,7.0,7.0,40,0.00,CLR,,0.00,WeatherDisplay:10.37,2013-07-31 18:53:00,
2013-07-31 13:58:00,92.5,64.7,29.97,SSE,159,10.4,10.4,40,0.00,CLR,,0.00,WeatherDisplay:10.37,2013-07-31 18:58:00,
2013-07-31 14:03:00,93.1,63.7,29.98,SSE,166,3.5,3.5,38,0.00,CLR,,0.00,WeatherDisplay:10.37,2013-07-31 19:03:00,
2013-07-31 14:08:00,93.5,61.7,29.97,West,265,7.0,7.0,35,0.00,CLR,,0.00,WeatherDisplay:10.37,2013-07-31 19:08:00,
2013-07-31 14:13:00,93.6,61.0,29.97,SSE,163,12.7,12.7,34,0.00,CLR,,0.00,WeatherDisplay:10.37,2013-07-31 19:13:00,
2013-07-31 14:18:00,93.7,60.3,29.97,SSE,166,5.8,5.8,33,0.00,CLR,,0.00,WeatherDisplay:10.37,2013-07-31 19:18:00,
2013-07-31 14:23:00,93.9,61.3,29.97,SSW,198,6.9,6.9,34,0.00,CLR,,0.00,WeatherDisplay:10.37,2013-07-31 19:23:00,
2013-07-31 14:28:00,94.3,61.6,29.97,South,190,3.5,3.5,34,0.00,CLR,,0.00,WeatherDisplay:10.37,2013-07-31 19:28:00,
2013-07-31 14:33:00,94.6,59.3,29.97,SSW,205,1.2,0.0,31,0.00,CLR,,0.00,WeatherDisplay:10.37,2013-07-31 19:33:00,
2013-07-31 14:38:00,94.9,63.0,29.96,SSW,193,0.0,0.0,35,0.00,CLR,,0.00,WeatherDisplay:10.37,2013-07-31 19:38:00,
2013-07-31 14:43:00,95.1,61.5,29.96,SSW,193,6.9,6.9,33,0.00,CLR,,0.00,WeatherDisplay:10.37,2013-07-31 19:43:00,
2013-07-31 14:48:00,95.2,60.7,29.96,SSW,213,12.7,12.7,32,0.00,CLR,,0.00,WeatherDisplay:10.37,2013-07-31 19:48:00,
2013-07-31 14:53:00,95.0,59.6,29.95,SW,229,4.0,4.0,31,0.00,CLR,,0.00,WeatherDisplay:10.37,2013-07-31 19:53:00,
2013-07-31 14:58:00,95.4,60.0,29.95,SW,227,0.0,0.0,31,0.00,CLR,,0.00,WeatherDisplay:10.37,2013-07-31 19:58:00,
2013-07-31 15:03:00,96.0,60.5,29.95,SW,217,5.0,5.0,31,0.00,CLR,,0.00,WeatherDisplay:10.37,2013-07-31 20:03:00,
2013-07-31 15:08:00,96.3,62.5,29.95,SSW,196,3.5,3.5,33,0.00,CLR,,0.00,WeatherDisplay:10.37,2013-07-31 20:08:00,
2013-07-31 15:13:00,96.3,61.6,29.95,SSW,198,0.0,0.0,32,0.00,CLR,,0.00,WeatherDisplay:10.37,2013-07-31 20:13:00,
2013-07-31 15:18:00,96.5,61.8,29.95,SSW,206,5.8,5.8,32,0.00,CLR,,0.00,WeatherDisplay:10.37,2013-07-31 20:18:00,
2013-07-31 15:23:00,96.9,61.3,29.95,SSW,205,6.9,6.9,31,0.00,CLR,,0.00,WeatherDisplay:10.37,2013-07-31 20:23:00,
2013-07-31 15:28:00,97.0,61.4,29.94,SSW,200,7.0,7.0,31,0.00,CLR,,0.00,WeatherDisplay:10.37,2013-07-31 20:28:00,
2013-07-31 15:33:00,97.1,61.4,29.94,SSW,200,4.0,4.0,31,0.00,CLR,,0.00,WeatherDisplay:10.37,2013-07-31 20:33:00,
2013-07-31 15:38:00,97.2,60.6,29.94,SSW,200,2.3,2.3,30,0.00,CLR,,0.00,WeatherDisplay:10.37,2013-07-31 20:38:00,
2013-07-31 15:43:00,97.1,61.4,29.94,South,176,5.8,5.8,31,0.00,CLR,,0.00,WeatherDisplay:10.37,2013-07-31 20:43:00,
2013-07-31 15:48:00,97.2,62.4,29.93,SE,132,0.0,0.0,32,0.00,CLR,,0.00,WeatherDisplay:10.37,2013-07-31 20:48:00,
2013-07-31 15:57:00,97.5,58.9,29.93,South,171,10.4,10.4,28,0.00,CLR,,0.00,WeatherDisplay:10.37,2013-07-31 20:57:00,
2013-07-31 16:02:00,97.4,59.8,29.93,South,175,8.0,8.0,29,0.00,CLR,,0.00,WeatherDisplay:10.37,2013-07-31 21:02:00,
2013-07-31 16:07:00,97.5,59.9,29.93,South,178,0.0,0.0,29,0.00,CLR,,0.00,WeatherDisplay:10.37,2013-07-31 21:07:00,
2013-07-31 16:12:00,97.8,59.2,29.92,South,178,11.5,11.5,28,0.00,CLR,,0.00,WeatherDisplay:10.37,2013-07-31 21:12:00,
2013-07-31 16:17:00,97.8,59.2,29.92,South,175,5.8,5.8,28,0.00,CLR,,0.00,WeatherDisplay:10.37,2013-07-31 21:17:00,
2013-07-31 16:22:00,97.6,59.0,29.92,SE,137,10.4,10.4,28,0.00,CLR,,0.00,WeatherDisplay:10.37,2013-07-31 21:22:00,
2013-07-31 16:27:00,97.5,57.9,29.92,SE,134,3.5,0.0,27,0.00,CLR,,0.00,WeatherDisplay:10.37,2013-07-31 21:27:00,
2013-07-31 16:32:00,97.7,58.1,29.92,SE,128,0.0,0.0,27,0.00,CLR,,0.00,WeatherDisplay:10.37,2013-07-31 21:32:00,
2013-07-31 16:37:00,97.6,56.9,29.92,SE,128,1.2,1.2,26,0.00,CLR,,0.00,WeatherDisplay:10.37,2013-07-31 21:37:00,
2013-07-31 16:42:00,97.9,59.3,29.91,SE,128,2.0,2.0,28,0.00,CLR,,0.00,WeatherDisplay:10.37,2013-07-31 21:42:00,
2013-07-31 16:47:00,98.2,59.5,29.91,ESE,115,6.0,6.0,28,0.00,CLR,,0.00,WeatherDisplay:10.37,2013-07-31 21:47:00,
2013-07-31 16:52:00,98.2,58.5,29.91,ESE,106,3.5,3.5,27,0.00,CLR,,0.00,WeatherDisplay:10.37,2013-07-31 21:52:00,
2013-07-31 16:57:00,98.1,57.4,29.91,ESE,103,0.0,0.0,26,0.00,CLR,,0.00,WeatherDisplay:10.37,2013-07-31 21:57:00,
2013-07-31 17:02:00,98.5,57.7,29.91,ESE,103,1.0,0.0,26,0.00,CLR,,0.00,WeatherDisplay:10.37,2013-07-31 22:02:00,
2013-07-31 17:07:00,98.8,58.0,29.91,ESE,113,5.8,5.8,26,0.00,CLR,,0.00,WeatherDisplay:10.37,2013-07-31 22:07:00,
2013-07-31 17:12:00,99.1,58.2,29.91,SE,141,3.5,3.5,26,0.00,CLR,,0.00,WeatherDisplay:10.37,2013-07-31 22:12:00,
2013-07-31 17:17:00,99.0,57.0,29.90,SE,146,9.0,9.0,25,0.00,CLR,,0.00,WeatherDisplay:10.37,2013-07-31 22:17:00,
2013-07-31 17:22:00,98.9,56.9,29.90,SSE,152,9.2,9.2,25,0.00,CLR,,0.00,WeatherDisplay:10.37,2013-07-31 22:22:00,
2013-07-31 17:27:00,98.9,56.9,29.90,SSE,160,4.6,4.6,25,0.00,CLR,,0.00,WeatherDisplay:10.37,2013-07-31 22:27:00,
2013-07-31 17:32:00,98.9,55.8,29.90,SSE,149,7.0,7.0,24,0.00,CLR,,0.00,WeatherDisplay:10.37,2013-07-31 22:32:00,
2013-07-31 17:37:00,98.9,53.4,29.90,SSE,148,6.9,6.9,22,0.00,CLR,,0.00,WeatherDisplay:10.37,2013-07-31 22:37:00,
2013-07-31 17:42:00,98.8,53.3,29.90,SSE,148,1.2,0.0,22,0.00,CLR,,0.00,WeatherDisplay:10.37,2013-07-31 22:42:00,
2013-07-31 17:47:00,99.0,53.5,29.90,SSE,148,1.2,1.2,22,0.00,CLR,,0.00,WeatherDisplay:10.37,2013-07-31 22:47:00,
2013-07-31 17:52:00,99.3,57.3,29.90,SE,138,9.2,9.2,25,0.00,CLR,,0.00,WeatherDisplay:10.37,2013-07-31 22:52:00,
2013-07-31 17:57:00,99.4,57.4,29.90,SE,134,3.5,0.0,25,0.00,CLR,,0.00,WeatherDisplay:10.37,2013-07-31 22:57:00,
2013-07-31 18:02:00,99.2,56.1,29.89,SE,135,3.5,3.5,24,0.00,CLR,,0.00,WeatherDisplay:10.37,2013-07-31 23:02:00,
2013-07-31 18:07:00,99.1,57.1,29.89,SE,134,0.0,0.0,25,0.00,CLR,,0.00,WeatherDisplay:10.37,2013-07-31 23:07:00,
2013-07-31 18:12:00,99.3,57.3,29.89,SE,135,0.0,0.0,25,0.00,CLR,,0.00,WeatherDisplay:10.37,2013-07-31 23:12:00,
2013-07-31 18:17:00,99.4,58.5,29.89,SE,136,0.0,0.0,26,0.00,CLR,,0.00,WeatherDisplay:10.37,2013-07-31 23:17:00,
2013-07-31 18:22:00,99.3,58.4,29.88,SE,136,0.0,0.0,26,0.00,CLR,,0.00,WeatherDisplay:10.37,2013-07-31 23:22:00,
2013-07-31 18:27:00,99.1,58.2,29.88,SE,139,11.5,11.5,26,0.00,CLR,,0.00,WeatherDisplay:10.37,2013-07-31 23:27:00,
2013-07-31 18:32:00,98.7,58.9,29.88,SE,142,10.4,10.4,27,0.00,CLR,,0.00,WeatherDisplay:10.37,2013-07-31 23:32:00,
2013-07-31 18:37:00,98.6,58.8,29.88,SE,144,3.5,3.5,27,0.00,CLR,,0.00,WeatherDisplay:10.37,2013-07-31 23:37:00,
2013-07-31 18:42:00,98.6,58.8,29.88,SE,144,3.5,3.5,27,0.00,CLR,,0.00,WeatherDisplay:10.37,2013-07-31 23:42:00,
2013-07-31 18:47:00,98.4,58.7,29.88,SE,143,6.9,6.9,27,0.00,CLR,,0.00,WeatherDisplay:10.37,2013-07-31 23:47:00,
2013-07-31 18:52:00,98.3,58.6,29.88,SE,143,5.8,5.8,27,0.00,CLR,,0.00,WeatherDisplay:10.37,2013-07-31 23:52:00,
2013-07-31 18:57:00,98.3,58.6,29.87,SE,142,3.5,3.5,27,0.00,CLR,,0.00,WeatherDisplay:10.37,2013-07-31 23:57:00,
2013-07-31 19:03:00,98.2,59.5,29.87,SE,142,1.2,1.2,28,0.00,CLR,,0.00,WeatherDisplay:10.37,2013-08-01 00:03:00,
2013-07-31 19:08:00,98.3,59.6,29.87,SE,144,3.5,3.5,28,0.00,CLR,,0.00,WeatherDisplay:10.37,2013-08-01 00:08:00,
2013-07-31 19:13:00,98.3,59.6,29.87,SE,144,5.8,5.8,28,0.00,CLR,,0.00,WeatherDisplay:10.37,2013-08-01 00:13:00,
2013-07-31 19:18:00,98.2,59.5,29.87,SE,144,4.6,4.6,28,0.00,CLR,,0.00,WeatherDisplay:10.37,2013-08-01 00:18:00,
2013-07-31 19:23:00,98.0,59.3,29.87,SE,144,0.0,0.0,28,0.00,CLR,,0.00,WeatherDisplay:10.37,2013-08-01 00:23:00,
2013-07-31 19:28:00,97.8,59.2,29.87,SE,144,0.0,0.0,28,0.00,CLR,,0.00,WeatherDisplay:10.37,2013-08-01 00:28:00,
2013-07-31 19:33:00,97.7,59.1,29.87,SE,144,0.0,0.0,28,0.00,CLR,,0.00,WeatherDisplay:10.37,2013-08-01 00:33:00,
2013-07-31 19:38:00,97.7,60.1,29.87,SE,144,0.0,0.0,29,0.00,CLR,,0.00,WeatherDisplay:10.37,2013-08-01 00:38:00,
2013-07-31 19:43:00,97.6,60.0,29.87,SE,144,0.0,0.0,29,0.00,CLR,,0.00,WeatherDisplay:10.37,2013-08-01 00:43:00,
2013-07-31 19:48:00,97.4,59.8,29.87,SE,144,0.0,0.0,29,0.00,CLR,,0.00,WeatherDisplay:10.37,2013-08-01 00:48:00,
2013-07-31 19:53:00,97.2,60.6,29.88,SE,144,0.0,0.0,30,0.00,CLR,,0.00,WeatherDisplay:10.37,2013-08-01 00:53:00,
2013-07-31 19:58:00,96.7,61.1,29.88,SE,144,3.5,3.5,31,0.00,CLR,,0.00,WeatherDisplay:10.37,2013-08-01 00:58:00,
2013-07-31 20:03:00,96.3,61.6,29.88,SE,144,0.0,0.0,32,0.00,CLR,,0.00,WeatherDisplay:10.37,2013-08-01 01:03:00,
2013-07-31 20:08:00,95.8,60.3,29.88,SE,144,0.0,0.0,31,0.00,CLR,,0.00,WeatherDisplay:10.37,2013-08-01 01:08:00,
2013-07-31 20:13:00,95.2,60.7,29.88,SE,144,0.0,0.0,32,0.00,CLR,,0.00,WeatherDisplay:10.37,2013-08-01 01:13:00,
2013-07-31 20:18:00,94.8,60.3,29.88,SE,144,0.0,0.0,32,0.00,CLR,,0.00,WeatherDisplay:10.37,2013-08-01 01:18:00,
2013-07-31 20:23:00,94.6,61.0,29.89,SE,144,0.0,0.0,33,0.00,CLR,,0.00,WeatherDisplay:10.37,2013-08-01 01:23:00,
2013-07-31 20:28:00,94.4,60.9,29.89,SE,144,0.0,0.0,33,0.00,CLR,,0.00,WeatherDisplay:10.37,2013-08-01 01:28:00,
2013-07-31 20:33:00,94.1,61.4,29.89,SE,144,0.0,0.0,34,0.00,CLR,,0.00,WeatherDisplay:10.37,2013-08-01 01:33:00,
2013-07-31 20:38:00,93.7,59.4,29.89,SE,144,0.0,0.0,32,0.00,CLR,,0.00,WeatherDisplay:10.37,2013-08-01 01:38:00,
2013-07-31 20:43:00,93.1,60.6,29.89,SE,144,0.0,0.0,34,0.00,CLR,,0.00,WeatherDisplay:10.37,2013-08-01 01:43:00,
2013-07-31 20:48:00,92.6,60.1,29.89,SE,144,0.0,0.0,34,0.00,CLR,,0.00,WeatherDisplay:10.37,2013-08-01 01:48:00,
2013-07-31 20:53:00,92.2,61.4,29.89,SE,144,0.0,0.0,36,0.00,CLR,,0.00,WeatherDisplay:10.37,2013-08-01 01:53:00,
2013-07-31 20:58:00,91.8,61.0,29.89,SE,144,0.0,0.0,36,0.00,CLR,,0.00,WeatherDisplay:10.37,2013-08-01 01:58:00,
2013-07-31 21:03:00,91.4,61.5,29.89,SE,144,0.0,0.0,37,0.00,CLR,,0.00,WeatherDisplay:10.37,2013-08-01 02:03:00,
2013-07-31 21:08:00,90.8,61.7,29.89,SE,144,0.0,0.0,38,0.00,CLR,,0.00,WeatherDisplay:10.37,2013-08-01 02:08:00,
2013-07-31 21:13:00,90.3,62.0,29.89,SE,144,0.0,0.0,39,0.00,CLR,,0.00,WeatherDisplay:10.37,2013-08-01 02:13:00,
2013-07-31 21:18:00,89.5,61.3,29.89,SE,144,0.0,0.0,39,0.00,CLR,,0.00,WeatherDisplay:10.37,2013-08-01 02:18:00,
2013-07-31 21:23:00,88.6,61.2,29.89,SE,144,0.0,0.0,40,0.00,CLR,,0.00,WeatherDisplay:10.37,2013-08-01 02:23:00,
2013-07-31 21:28:00,87.8,61.2,29.89,SE,144,0.0,0.0,41,0.00,CLR,,0.00,WeatherDisplay:10.37,2013-08-01 02:28:00,
2013-07-31 21:33:00,87.0,61.1,29.90,SE,144,0.0,0.0,42,0.00,CLR,,0.00,WeatherDisplay:10.37,2013-08-01 02:33:00,
2013-07-31 21:38:00,86.5,61.3,29.90,SE,144,0.0,0.0,43,0.00,CLR,,0.00,WeatherDisplay:10.37,2013-08-01 02:38:00,
2013-07-31 21:43:00,85.9,60.1,29.90,SE,144,0.0,0.0,42,0.00,CLR,,0.00,WeatherDisplay:10.37,2013-08-01 02:43:00,
2013-07-31 21:48:00,85.4,61.0,29.90,SE,144,0.0,0.0,44,0.00,CLR,,0.00,WeatherDisplay:10.37,2013-08-01 02:48:00,
2013-07-31 21:53:00,84.8,60.5,29.90,SE,144,0.0,0.0,44,0.00,CLR,,0.00,WeatherDisplay:10.37,2013-08-01 02:53:00,
2013-07-31 21:58:00,84.3,60.0,29.90,SE,144,0.0,0.0,44,0.00,CLR,,0.00,WeatherDisplay:10.37,2013-08-01 02:58:00,
2013-07-31 22:03:00,83.8,59.6,29.91,SE,144,0.0,0.0,44,0.00,CLR,,0.00,WeatherDisplay:10.37,2013-08-01 03:03:00,
2013-07-31 22:08:00,83.4,59.8,29.91,SE,144,0.0,0.0,45,0.00,CLR,,0.00,WeatherDisplay:10.37,2013-08-01 03:08:00,
2013-07-31 22:13:00,83.0,60.1,29.91,SE,144,0.0,0.0,46,0.00,CLR,,0.00,WeatherDisplay:10.37,2013-08-01 03:13:00,
2013-07-31 22:18:00,82.7,60.4,29.91,SE,144,0.0,0.0,47,0.00,CLR,,0.00,WeatherDisplay:10.37,2013-08-01 03:18:00,
2013-07-31 22:23:00,82.4,60.1,29.91,SE,144,0.0,0.0,47,0.00,CLR,,0.00,WeatherDisplay:10.37,2013-08-01 03:23:00,
2013-07-31 22:28:00,81.9,60.3,29.92,SSE,147,2.3,2.3,48,0.00,CLR,,0.00,WeatherDisplay:10.37,2013-08-01 03:28:00,
2013-07-31 22:33:00,82.2,61.7,29.92,SE,145,8.1,8.1,50,0.00,CLR,,0.00,WeatherDisplay:10.37,2013-08-01 03:33:00,
2013-07-31 22:38:00,82.8,63.4,29.92,SE,145,3.5,3.5,52,0.00,CLR,,0.00,WeatherDisplay:10.37,2013-08-01 03:38:00,
2013-07-31 22:43:00,83.3,65.4,29.92,SSE,148,6.9,6.9,55,0.00,CLR,,0.00,WeatherDisplay:10.37,2013-08-01 03:43:00,
2013-07-31 22:48:00,83.7,65.8,29.92,SSE,148,3.5,3.5,55,0.00,CLR,,0.00,WeatherDisplay:10.37,2013-08-01 03:48:00,
2013-07-31 22:53:00,84.1,67.7,29.92,SSE,148,0.0,0.0,58,0.00,CLR,,0.00,WeatherDisplay:10.37,2013-08-01 03:53:00,
2013-07-31 22:58:00,84.2,67.8,29.92,SSE,148,0.0,0.0,58,0.00,CLR,,0.00,WeatherDisplay:10.37,2013-08-01 03:58:00,
2013-07-31 23:01:00,84.3,67.9,29.93,SSE,148,0.0,0.0,58,0.00,CLR,,0.00,WeatherDisplay:10.37,2013-08-01 04:01:00,
2013-07-31 23:02:00,84.3,67.9,29.93,SSE,148,0.0,0.0,58,0.00,CLR,,0.00,WeatherDisplay:10.37,2013-08-01 04:02:00,
2013-07-31 23:04:00,84.3,67.4,29.93,SSE,148,0.0,0.0,57,0.00,CLR,,0.00,WeatherDisplay:10.37,2013-08-01 04:04:00,
2013-07-31 23:09:00,84.2,67.8,29.93,SSE,148,0.0,0.0,58,0.00,CLR,,0.00,WeatherDisplay:10.37,2013-08-01 04:09:00,
2013-07-31 23:14:00,84.2,68.3,29.93,SSE,148,0.0,0.0,59,0.00,CLR,,0.00,WeatherDisplay:10.37,2013-08-01 04:14:00,
2013-07-31 23:19:00,84.1,68.2,29.93,SSE,148,0.0,0.0,59,0.00,CLR,,0.00,WeatherDisplay:10.37,2013-08-01 04:19:00,
2013-07-31 23:24:00,84.0,68.6,29.93,SSE,148,0.0,0.0,60,0.00,CLR,,0.00,WeatherDisplay:10.37,2013-08-01 04:24:00,
2013-07-31 23:29:00,84.0,68.6,29.93,SSE,148,0.0,0.0,60,0.00,CLR,,0.00,WeatherDisplay:10.37,2013-08-01 04:29:00,
2013-07-31 23:34:00,83.8,68.9,29.93,SSE,148,0.0,0.0,61,0.00,CLR,,0.00,WeatherDisplay:10.37,2013-08-01 04:34:00,
2013-07-31 23:39:00,83.6,69.2,29.94,SSE,148,3.5,0.0,62,0.00,CLR,,0.00,WeatherDisplay:10.37,2013-08-01 04:39:00,
2013-07-31 23:44:00,83.3,69.4,29.94,SSE,148,0.0,0.0,63,0.00,CLR,,0.00,WeatherDisplay:10.37,2013-08-01 04:44:00,
2013-07-31 23:49:00,83.1,69.7,29.94,SSE,148,0.0,0.0,64,0.00,CLR,,0.00,WeatherDisplay:10.37,2013-08-01 04:49:00,
2013-07-31 23:54:00,82.9,69.9,29.94,SSE,148,0.0,0.0,65,0.00,CLR,,0.00,WeatherDisplay:10.37,2013-08-01 04:54:00,
2013-07-31 23:59:00,82.7,70.2,29.94,SSE,148,0.0,0.0,66,0.00,CLR,,0.00,WeatherDisplay:10.37,2013-08-01 04:59:00,